User: anonymous   Login
Location: Fort Worth, Tx
(32.7431°N, 97.3695°W)
Time: 14:06:49
(UTC-05:00)
Language:

SR - Orbit

View from above orbital plane
View from above orbital plane
View from above satellite
View from above satellite

Ground track
Ground track

The orbit data is extracted from the following two-line orbital elements,

1    46U 60007B   24053.31628830  .00000904  00000-0  19298-3 0  9993
2    46  66.6911   9.2257 0207472 209.5938 149.3303 14.51479609334069
Epoch (UTC): 22 February 2024 07:35:27
Eccentricity: 0.0207472
inclination: 66.6911°
perigee height: 573 km
apogee height: 868 km
right ascension of ascending node: 9.2257°
argument of perigee: 209.5938°
revolutions per day: 14.51479609
mean anomaly at epoch: 149.3303°
orbit number at epoch: 33406

The dashed part of the orbit path shows where the satellite is in the earth's shadow,  

DLR